Time,TemperatureF,DewpointF,PressureIn,WindDirection,WindDirectionDegrees,WindSpeedMPH,WindSpeedGustMPH,Humidity,HourlyPrecipIn,Conditions,Clouds,dailyrainin,SoftwareType,DateUTC
2013-08-14 00:01:00,69.5,60.8,30.21,NNE,23,0.0,0.0,74,0.00,,,0.00,WUHU216HW,2013-08-14 05:01:00,
2013-08-14 00:06:00,69.3,60.6,30.21,North,0,0.0,0.0,74,0.00,,,0.00,WUHU216HW,2013-08-14 05:06:00,
2013-08-14 00:11:00,69.1,60.5,30.21,North,0,0.0,0.0,74,0.00,,,0.00,WUHU216HW,2013-08-14 05:11:00,
2013-08-14 00:16:00,69.1,60.5,30.21,North,0,0.0,0.0,74,0.00,,,0.00,WUHU216HW,2013-08-14 05:16:00,
2013-08-14 00:21:00,68.9,60.3,30.21,North,0,0.0,0.0,74,0.00,,,0.00,WUHU216HW,2013-08-14 05:21:00,
2013-08-14 00:26:00,68.8,60.5,30.21,ENE,68,0.0,0.0,75,0.00,,,0.00,WUHU216HW,2013-08-14 05:26:00,
2013-08-14 00:31:00,68.6,60.3,30.21,ENE,68,0.0,0.0,75,0.00,,,0.00,WUHU216HW,2013-08-14 05:31:00,
2013-08-14 00:36:00,68.4,60.2,30.22,ENE,68,0.0,0.0,75,0.00,,,0.00,WUHU216HW,2013-08-14 05:36:00,
2013-08-14 00:41:00,68.4,60.6,30.22,ENE,68,0.0,0.0,76,0.00,,,0.00,WUHU216HW,2013-08-14 05:41:00,
2013-08-14 00:46:00,68.2,60.4,30.22,ESE,113,0.0,0.0,76,0.00,,,0.00,WUHU216HW,2013-08-14 05:46:00,
2013-08-14 00:51:00,68.0,60.6,30.22,ESE,113,0.0,0.0,77,0.00,,,0.00,WUHU216HW,2013-08-14 05:51:00,
2013-08-14 00:56:00,68.0,60.6,30.22,ESE,113,0.0,0.0,77,0.00,,,0.00,WUHU216HW,2013-08-14 05:56:00,
2013-08-14 01:01:00,68.0,60.6,30.21,ESE,113,0.0,0.0,77,0.00,,,0.00,WUHU216HW,2013-08-14 06:01:00,
2013-08-14 01:06:00,67.9,60.4,30.21,ESE,113,0.0,0.0,77,0.00,,,0.00,WUHU216HW,2013-08-14 06:06:00,
2013-08-14 01:11:00,67.7,60.2,30.21,ESE,113,0.0,0.0,77,0.00,,,0.00,WUHU216HW,2013-08-14 06:11:00,
2013-08-14 01:16:00,67.7,60.2,30.21,ESE,113,0.0,0.0,77,0.00,,,0.00,WUHU216HW,2013-08-14 06:16:00,
2013-08-14 01:21:00,67.5,60.0,30.22,East,90,0.2,0.2,77,0.00,,,0.00,WUHU216HW,2013-08-14 06:21:00,
2013-08-14 01:26:00,67.3,60.3,30.21,SE,135,1.1,2.7,78,0.00,,,0.00,WUHU216HW,2013-08-14 06:26:00,
2013-08-14 01:31:00,67.3,60.3,30.22,East,90,0.4,2.7,78,0.00,,,0.00,WUHU216HW,2013-08-14 06:31:00,
2013-08-14 01:36:00,67.3,60.3,30.22,East,90,0.4,2.7,78,0.00,,,0.00,WUHU216HW,2013-08-14 06:36:00,
2013-08-14 01:41:00,67.3,60.3,30.22,SE,135,1.1,3.4,78,0.00,,,0.00,WUHU216HW,2013-08-14 06:41:00,
2013-08-14 01:46:00,67.3,60.3,30.22,East,90,2.9,3.4,78,0.00,,,0.00,WUHU216HW,2013-08-14 06:46:00,
2013-08-14 01:51:00,67.3,60.3,30.22,ENE,68,0.9,3.4,78,0.00,,,0.00,WUHU216HW,2013-08-14 06:51:00,
2013-08-14 01:56:00,67.3,60.3,30.22,ESE,113,1.8,3.4,78,0.00,,,0.00,WUHU216HW,2013-08-14 06:56:00,
2013-08-14 02:01:00,67.3,60.3,30.22,ESE,113,1.8,3.8,78,0.00,,,0.00,WUHU216HW,2013-08-14 07:01:00,
2013-08-14 02:06:00,67.3,60.3,30.22,SE,135,1.1,3.8,78,0.00,,,0.00,WUHU216HW,2013-08-14 07:06:00,
2013-08-14 02:11:00,67.1,60.1,30.22,ESE,113,0.9,3.4,78,0.00,,,0.00,WUHU216HW,2013-08-14 07:11:00,
2013-08-14 02:16:00,67.1,60.1,30.22,East,90,2.7,3.4,78,0.00,,,0.00,WUHU216HW,2013-08-14 07:16:00,
2013-08-14 02:21:00,67.1,60.1,30.22,SE,135,2.2,3.4,78,0.00,,,0.00,WUHU216HW,2013-08-14 07:21:00,
2013-08-14 02:26:00,67.0,60.0,30.22,ESE,113,1.8,3.8,78,0.00,,,0.00,WUHU216HW,2013-08-14 07:26:00,
2013-08-14 02:31:00,67.0,60.0,30.22,ENE,68,1.8,3.8,78,0.00,,,0.00,WUHU216HW,2013-08-14 07:31:00,
2013-08-14 02:36:00,67.0,60.0,30.22,East,90,0.9,3.4,78,0.00,,,0.00,WUHU216HW,2013-08-14 07:36:00,
2013-08-14 02:41:00,67.0,60.0,30.22,ESE,113,0.9,2.5,78,0.00,,,0.00,WUHU216HW,2013-08-14 07:41:00,
2013-08-14 02:46:00,66.8,59.8,30.22,ESE,113,1.1,2.9,78,0.00,,,0.00,WUHU216HW,2013-08-14 07:46:00,
2013-08-14 02:51:00,66.8,59.8,30.22,ESE,113,0.9,2.9,78,0.00,,,0.00,WUHU216HW,2013-08-14 07:51:00,
2013-08-14 02:56:00,66.6,59.6,30.22,ENE,68,2.2,2.7,78,0.00,,,0.00,WUHU216HW,2013-08-14 07:56:00,
2013-08-14 03:01:00,66.6,59.6,30.22,SE,135,2.5,4.0,78,0.00,,,0.00,WUHU216HW,2013-08-14 08:01:00,
2013-08-14 03:06:00,66.4,59.8,30.23,SE,135,2.7,4.0,79,0.00,,,0.00,WUHU216HW,2013-08-14 08:06:00,
2013-08-14 03:11:00,66.4,59.8,30.23,ESE,113,1.1,2.7,79,0.00,,,0.00,WUHU216HW,2013-08-14 08:11:00,
2013-08-14 03:16:00,66.2,59.6,30.23,ESE,113,2.5,2.7,79,0.00,,,0.00,WUHU216HW,2013-08-14 08:16:00,
2013-08-14 03:21:00,66.2,59.6,30.22,ESE,113,1.3,2.5,79,0.00,,,0.00,WUHU216HW,2013-08-14 08:21:00,
2013-08-14 03:29:00,66.1,59.4,30.23,SE,135,1.6,2.7,79,0.00,,,0.00,WUHU216HW,2013-08-14 08:29:00,
2013-08-14 03:34:00,65.9,59.2,30.23,ESE,113,1.1,2.0,79,0.00,,,0.00,WUHU216HW,2013-08-14 08:34:00,
2013-08-14 03:39:00,65.9,59.2,30.23,ENE,68,1.1,2.0,79,0.00,,,0.00,WUHU216HW,2013-08-14 08:39:00,
2013-08-14 03:44:00,65.9,59.2,30.23,NNE,23,0.4,2.0,79,0.00,,,0.00,WUHU216HW,2013-08-14 08:44:00,
2013-08-14 03:49:00,65.9,59.2,30.24,ENE,68,0.0,2.0,79,0.00,,,0.00,WUHU216HW,2013-08-14 08:49:00,
2013-08-14 03:54:00,65.9,59.2,30.24,ENE,68,0.7,1.8,79,0.00,,,0.00,WUHU216HW,2013-08-14 08:54:00,
2013-08-14 03:59:00,65.9,59.2,30.24,East,90,0.2,2.2,79,0.00,,,0.00,WUHU216HW,2013-08-14 08:59:00,
2013-08-14 04:04:00,65.9,59.2,30.24,ENE,68,0.0,2.2,79,0.00,,,0.00,WUHU216HW,2013-08-14 09:04:00,
2013-08-14 04:09:00,65.7,59.1,30.24,ESE,113,0.4,1.8,79,0.00,,,0.00,WUHU216HW,2013-08-14 09:09:00,
2013-08-14 04:14:00,65.7,59.1,30.24,East,90,0.7,1.8,79,0.00,,,0.00,WUHU216HW,2013-08-14 09:14:00,
2013-08-14 04:19:00,65.5,58.9,30.23,ESE,113,0.7,1.8,79,0.00,,,0.00,WUHU216HW,2013-08-14 09:19:00,
2013-08-14 04:24:00,65.5,58.9,30.23,SE,135,0.4,2.5,79,0.00,,,0.00,WUHU216HW,2013-08-14 09:24:00,
2013-08-14 04:29:00,65.5,58.9,30.24,ESE,113,0.4,2.5,79,0.00,,,0.00,WUHU216HW,2013-08-14 09:29:00,
2013-08-14 04:34:00,65.3,58.7,30.24,East,90,0.9,2.0,79,0.00,,,0.00,WUHU216HW,2013-08-14 09:34:00,
2013-08-14 04:39:00,65.3,58.7,30.24,East,90,2.5,2.5,79,0.00,,,0.00,WUHU216HW,2013-08-14 09:39:00,
2013-08-14 04:44:00,65.2,58.9,30.24,NNE,23,0.0,2.5,80,0.00,,,0.00,WUHU216HW,2013-08-14 09:44:00,
2013-08-14 04:49:00,65.2,58.9,30.24,ESE,113,0.0,1.6,80,0.00,,,0.00,WUHU216HW,2013-08-14 09:49:00,
2013-08-14 04:54:00,65.2,58.9,30.24,ESE,113,0.0,0.0,80,0.00,,,0.00,WUHU216HW,2013-08-14 09:54:00,
2013-08-14 04:59:00,65.0,58.7,30.24,ENE,68,0.4,1.1,80,0.00,,,0.00,WUHU216HW,2013-08-14 09:59:00,
2013-08-14 05:04:00,65.0,58.7,30.24,East,90,0.0,1.1,80,0.00,,,0.00,WUHU216HW,2013-08-14 10:04:00,
2013-08-14 05:09:00,64.8,58.5,30.24,ESE,113,0.7,2.2,80,0.00,,,0.00,WUHU216HW,2013-08-14 10:09:00,
2013-08-14 05:14:00,64.8,58.5,30.24,SE,135,0.7,2.2,80,0.00,,,0.00,WUHU216HW,2013-08-14 10:14:00,
2013-08-14 05:19:00,64.8,58.5,30.24,ESE,113,0.7,2.2,80,0.00,,,0.00,WUHU216HW,2013-08-14 10:19:00,
2013-08-14 05:24:00,64.6,58.3,30.24,SE,135,1.1,2.5,80,0.00,,,0.00,WUHU216HW,2013-08-14 10:24:00,
2013-08-14 05:29:00,64.6,58.3,30.24,SE,135,1.1,2.5,80,0.00,,,0.00,WUHU216HW,2013-08-14 10:29:00,
2013-08-14 05:34:00,64.4,58.1,30.24,SSE,158,0.7,2.9,80,0.00,,,0.00,WUHU216HW,2013-08-14 10:34:00,
2013-08-14 05:39:00,64.4,58.1,30.24,ESE,113,0.9,2.9,80,0.00,,,0.00,WUHU216HW,2013-08-14 10:39:00,
2013-08-14 05:44:00,64.4,58.1,30.24,SE,135,0.2,2.2,80,0.00,,,0.00,WUHU216HW,2013-08-14 10:44:00,
2013-08-14 05:49:00,64.3,58.0,30.24,ENE,68,0.4,2.2,80,0.00,,,0.00,WUHU216HW,2013-08-14 10:49:00,
2013-08-14 05:54:00,64.3,58.0,30.24,SE,135,0.4,2.7,80,0.00,,,0.00,WUHU216HW,2013-08-14 10:54:00,
2013-08-14 05:59:00,64.3,58.3,30.24,SE,135,1.6,2.7,81,0.00,,,0.00,WUHU216HW,2013-08-14 10:59:00,
2013-08-14 06:04:00,64.1,57.8,30.24,ESE,113,0.7,2.0,80,0.00,,,0.00,WUHU216HW,2013-08-14 11:04:00,
2013-08-14 06:09:00,64.1,57.8,30.24,ESE,113,1.1,1.8,80,0.00,,,0.00,WUHU216HW,2013-08-14 11:09:00,
2013-08-14 06:14:00,64.1,57.4,30.25,ESE,113,0.9,3.1,79,0.00,,,0.00,WUHU216HW,2013-08-14 11:14:00,
2013-08-14 06:19:00,64.1,57.4,30.25,ESE,113,1.6,3.1,79,0.00,,,0.00,WUHU216HW,2013-08-14 11:19:00,
2013-08-14 06:24:00,64.1,57.4,30.25,SSE,158,0.0,1.6,79,0.00,,,0.00,WUHU216HW,2013-08-14 11:24:00,
2013-08-14 06:29:00,64.1,57.4,30.25,SE,135,0.0,4.7,79,0.00,,,0.00,WUHU216HW,2013-08-14 11:29:00,
2013-08-14 06:34:00,63.9,57.2,30.25,East,90,0.4,4.7,79,0.00,,,0.00,WUHU216HW,2013-08-14 11:34:00,
2013-08-14 06:39:00,63.9,57.2,30.25,ENE,68,0.4,3.8,79,0.00,,,0.00,WUHU216HW,2013-08-14 11:39:00,
2013-08-14 06:44:00,63.9,57.2,30.25,SE,135,0.4,3.8,79,0.00,,,0.00,WUHU216HW,2013-08-14 11:44:00,
2013-08-14 06:49:00,63.9,57.2,30.25,SE,135,0.7,1.8,79,0.00,,,0.00,WUHU216HW,2013-08-14 11:49:00,
2013-08-14 06:54:00,63.7,57.1,30.25,East,90,1.3,1.8,79,0.00,,,0.00,WUHU216HW,2013-08-14 11:54:00,
2013-08-14 06:59:00,63.7,57.1,30.25,ESE,113,0.9,2.0,79,0.00,,,0.00,WUHU216HW,2013-08-14 11:59:00,
2013-08-14 07:04:00,63.7,57.1,30.25,East,90,2.0,2.2,79,0.00,,,0.00,WUHU216HW,2013-08-14 12:04:00,
2013-08-14 07:09:00,63.7,57.1,30.25,ESE,113,0.9,2.7,79,0.00,,,0.00,WUHU216HW,2013-08-14 12:09:00,
2013-08-14 07:14:00,63.7,57.1,30.26,SE,135,1.3,2.7,79,0.00,,,0.00,WUHU216HW,2013-08-14 12:14:00,
2013-08-14 07:19:00,63.7,57.1,30.26,ESE,113,0.9,2.2,79,0.00,,,0.00,WUHU216HW,2013-08-14 12:19:00,
2013-08-14 07:24:00,63.7,57.1,30.26,SE,135,1.3,2.2,79,0.00,,,0.00,WUHU216HW,2013-08-14 12:24:00,
2013-08-14 07:29:00,63.7,57.1,30.26,SE,135,0.7,1.8,79,0.00,,,0.00,WUHU216HW,2013-08-14 12:29:00,
2013-08-14 07:34:00,63.9,57.2,30.26,SE,135,0.7,2.5,79,0.00,,,0.00,WUHU216HW,2013-08-14 12:34:00,
2013-08-14 07:39:00,63.9,57.2,30.26,SE,135,1.1,2.5,79,0.00,,,0.00,WUHU216HW,2013-08-14 12:39:00,
2013-08-14 07:44:00,63.9,57.2,30.26,East,90,0.0,2.5,79,0.00,,,0.00,WUHU216HW,2013-08-14 12:44:00,
2013-08-14 07:49:00,64.1,57.4,30.26,NNW,338,0.4,2.2,79,0.00,,,0.00,WUHU216HW,2013-08-14 12:49:00,
2013-08-14 07:54:00,64.1,57.4,30.26,South,180,0.7,2.2,79,0.00,,,0.00,WUHU216HW,2013-08-14 12:54:00,
2013-08-14 07:59:00,64.3,58.0,30.27,SE,135,0.7,1.3,80,0.00,,,0.00,WUHU216HW,2013-08-14 12:59:00,
2013-08-14 08:04:00,64.3,58.0,30.26,ENE,68,0.4,2.0,80,0.00,,,0.00,WUHU216HW,2013-08-14 13:04:00,
2013-08-14 08:09:00,64.4,58.1,30.27,ESE,113,1.1,4.0,80,0.00,,,0.00,WUHU216HW,2013-08-14 13:09:00,
2013-08-14 08:14:00,64.4,58.1,30.27,WSW,248,2.5,4.0,80,0.00,,,0.00,WUHU216HW,2013-08-14 13:14:00,
2013-08-14 08:19:00,64.6,58.0,30.27,North,0,1.3,2.5,79,0.00,,,0.00,WUHU216HW,2013-08-14 13:19:00,
2013-08-14 08:24:00,64.8,58.2,30.27,ESE,113,1.6,2.5,79,0.00,,,0.00,WUHU216HW,2013-08-14 13:24:00,
2013-08-14 08:29:00,64.8,58.2,30.27,SE,135,2.5,2.5,79,0.00,,,0.00,WUHU216HW,2013-08-14 13:29:00,
2013-08-14 08:34:00,65.0,58.3,30.27,SSE,158,0.4,2.5,79,0.00,,,0.00,WUHU216HW,2013-08-14 13:34:00,
2013-08-14 08:39:00,65.2,58.2,30.27,SE,135,0.4,2.5,78,0.00,,,0.00,WUHU216HW,2013-08-14 13:39:00,
2013-08-14 08:44:00,65.3,58.3,30.28,SSE,158,0.7,2.0,78,0.00,,,0.00,WUHU216HW,2013-08-14 13:44:00,
2013-08-14 08:49:00,65.5,58.2,30.28,South,180,1.1,3.1,77,0.00,,,0.00,WUHU216HW,2013-08-14 13:49:00,
2013-08-14 08:54:00,65.7,58.3,30.28,SE,135,1.8,3.1,77,0.00,,,0.00,WUHU216HW,2013-08-14 13:54:00,
2013-08-14 08:59:00,65.9,58.5,30.28,ESE,113,1.6,4.7,77,0.00,,,0.00,WUHU216HW,2013-08-14 13:59:00,
2013-08-14 09:04:00,66.2,58.8,30.28,SE,135,1.1,4.7,77,0.00,,,0.00,WUHU216HW,2013-08-14 14:04:00,
2013-08-14 09:09:00,66.4,58.6,30.28,SE,135,0.4,3.1,76,0.00,,,0.00,WUHU216HW,2013-08-14 14:09:00,
2013-08-14 09:14:00,66.6,58.8,30.28,SE,135,2.5,3.1,76,0.00,,,0.00,WUHU216HW,2013-08-14 14:14:00,
2013-08-14 09:19:00,66.8,59.0,30.28,NNE,23,1.6,3.4,76,0.00,,,0.00,WUHU216HW,2013-08-14 14:19:00,
2013-08-14 09:24:00,67.0,58.8,30.28,SSE,158,2.5,3.4,75,0.00,,,0.00,WUHU216HW,2013-08-14 14:24:00,
2013-08-14 09:29:00,67.3,59.1,30.28,ESE,113,0.9,4.0,75,0.00,,,0.00,WUHU216HW,2013-08-14 14:29:00,
2013-08-14 09:34:00,67.5,59.0,30.28,SE,135,0.9,4.0,74,0.00,,,0.00,WUHU216HW,2013-08-14 14:34:00,
2013-08-14 09:39:00,67.7,59.1,30.28,SE,135,0.4,2.7,74,0.00,,,0.00,WUHU216HW,2013-08-14 14:39:00,
2013-08-14 09:44:00,68.0,59.5,30.28,SE,135,0.7,1.6,74,0.00,,,0.00,WUHU216HW,2013-08-14 14:44:00,
2013-08-14 09:49:00,68.2,59.7,30.28,NE,45,2.9,4.0,74,0.00,,,0.00,WUHU216HW,2013-08-14 14:49:00,
2013-08-14 09:54:00,68.4,59.4,30.28,SE,135,2.2,4.0,73,0.00,,,0.00,WUHU216HW,2013-08-14 14:54:00,
2013-08-14 09:59:00,68.8,59.8,30.28,SSW,203,2.7,4.0,73,0.00,,,0.00,WUHU216HW,2013-08-14 14:59:00,
2013-08-14 10:04:00,68.9,60.0,30.28,SSE,158,1.1,4.0,73,0.00,,,0.00,WUHU216HW,2013-08-14 15:04:00,
2013-08-14 10:09:00,69.1,59.7,30.28,East,90,2.5,4.7,72,0.00,,,0.00,WUHU216HW,2013-08-14 15:09:00,
2013-08-14 10:14:00,69.3,59.9,30.28,South,180,1.6,4.7,72,0.00,,,0.00,WUHU216HW,2013-08-14 15:14:00,
2013-08-14 10:19:00,69.5,59.7,30.28,SE,135,1.6,5.1,71,0.00,,,0.00,WUHU216HW,2013-08-14 15:19:00,
2013-08-14 10:24:00,69.8,59.9,30.28,SSE,158,2.7,5.1,71,0.00,,,0.00,WUHU216HW,2013-08-14 15:24:00,
2013-08-14 10:29:00,70.0,59.8,30.29,WSW,248,1.6,4.0,70,0.00,,,0.00,WUHU216HW,2013-08-14 15:29:00,
2013-08-14 10:34:00,70.2,59.9,30.29,ENE,68,2.7,4.0,70,0.00,,,0.00,WUHU216HW,2013-08-14 15:34:00,
2013-08-14 10:39:00,70.6,60.3,30.29,WSW,248,1.1,3.4,70,0.00,,,0.00,WUHU216HW,2013-08-14 15:39:00,
2013-08-14 10:44:00,70.6,60.3,30.29,SE,135,1.1,3.8,70,0.00,,,0.00,WUHU216HW,2013-08-14 15:44:00,
2013-08-14 10:49:00,70.9,60.2,30.29,ENE,68,1.3,3.8,69,0.00,,,0.00,WUHU216HW,2013-08-14 15:49:00,
2013-08-14 10:54:00,71.1,60.4,30.29,North,0,1.1,3.1,69,0.00,,,0.00,WUHU216HW,2013-08-14 15:54:00,
2013-08-14 10:59:00,71.5,60.8,30.29,SSE,158,4.0,4.0,69,0.00,,,0.00,WUHU216HW,2013-08-14 15:59:00,
2013-08-14 11:04:00,71.6,60.9,30.29,South,180,1.1,4.0,69,0.00,,,0.00,WUHU216HW,2013-08-14 16:04:00,
2013-08-14 11:09:00,72.0,61.3,30.29,WSW,248,3.1,4.7,69,0.00,,,0.00,WUHU216HW,2013-08-14 16:09:00,
2013-08-14 11:14:00,72.2,61.5,30.29,South,180,2.5,6.0,69,0.00,,,0.00,WUHU216HW,2013-08-14 16:14:00,
2013-08-14 11:19:00,72.5,61.4,30.29,South,180,4.5,6.0,68,0.00,,,0.00,WUHU216HW,2013-08-14 16:19:00,
2013-08-14 11:24:00,72.7,61.6,30.29,SE,135,1.1,4.7,68,0.00,,,0.00,WUHU216HW,2013-08-14 16:24:00,
2013-08-14 11:29:00,73.1,61.9,30.29,NE,45,2.9,4.5,68,0.00,,,0.00,WUHU216HW,2013-08-14 16:29:00,
2013-08-14 11:34:00,73.1,61.5,30.29,SSW,203,1.8,3.8,67,0.00,,,0.00,WUHU216HW,2013-08-14 16:34:00,
2013-08-14 11:39:00,73.4,61.8,30.29,South,180,1.3,3.8,67,0.00,,,0.00,WUHU216HW,2013-08-14 16:39:00,
2013-08-14 11:44:00,73.4,61.8,30.29,South,180,0.4,4.0,67,0.00,,,0.00,WUHU216HW,2013-08-14 16:44:00,
2013-08-14 11:49:00,73.6,62.0,30.29,ENE,68,2.9,4.0,67,0.00,,,0.00,WUHU216HW,2013-08-14 16:49:00,
2013-08-14 11:54:00,73.6,61.6,30.29,ENE,68,1.3,4.0,66,0.00,,,0.00,WUHU216HW,2013-08-14 16:54:00,
2013-08-14 11:59:00,73.6,61.6,30.28,ESE,113,1.6,3.1,66,0.00,,,0.00,WUHU216HW,2013-08-14 16:59:00,
2013-08-14 12:04:00,73.8,61.8,30.28,SSE,158,2.5,3.1,66,0.00,,,0.00,WUHU216HW,2013-08-14 17:04:00,
2013-08-14 12:09:00,74.0,61.9,30.28,SE,135,1.1,3.1,66,0.00,,,0.00,WUHU216HW,2013-08-14 17:09:00,
2013-08-14 12:14:00,74.2,62.1,30.28,ENE,68,4.7,4.7,66,0.00,,,0.00,WUHU216HW,2013-08-14 17:14:00,
2013-08-14 12:19:00,74.3,61.8,30.28,ESE,113,2.0,5.4,65,0.00,,,0.00,WUHU216HW,2013-08-14 17:19:00,
2013-08-14 12:24:00,74.5,61.9,30.28,ESE,113,1.3,5.4,65,0.00,,,0.00,WUHU216HW,2013-08-14 17:24:00,
2013-08-14 12:29:00,74.9,61.8,30.28,NNW,338,2.5,5.4,64,0.00,,,0.00,WUHU216HW,2013-08-14 17:29:00,
2013-08-14 12:35:00,74.9,61.8,30.28,SE,135,1.8,5.4,64,0.00,,,0.00,WUHU216HW,2013-08-14 17:35:00,
2013-08-14 12:40:00,75.2,61.7,30.27,ENE,68,2.9,4.7,63,0.00,,,0.00,WUHU216HW,2013-08-14 17:40:00,
2013-08-14 12:45:00,75.2,61.7,30.27,SSW,203,1.8,4.7,63,0.00,,,0.00,WUHU216HW,2013-08-14 17:45:00,
2013-08-14 12:50:00,75.4,61.9,30.27,ENE,68,1.8,3.8,63,0.00,,,0.00,WUHU216HW,2013-08-14 17:50:00,
2013-08-14 12:55:00,75.8,62.3,30.27,SSE,158,1.8,3.8,63,0.00,,,0.00,WUHU216HW,2013-08-14 17:55:00,
2013-08-14 13:00:00,76.0,62.5,30.27,NW,315,1.6,3.4,63,0.00,,,0.00,WUHU216HW,2013-08-14 18:00:00,
2013-08-14 13:05:00,76.1,62.2,30.27,ENE,68,2.7,4.5,62,0.00,,,0.00,WUHU216HW,2013-08-14 18:05:00,
2013-08-14 13:10:00,76.5,62.5,30.27,SSW,203,0.7,4.5,62,0.00,,,0.00,WUHU216HW,2013-08-14 18:10:00,
2013-08-14 13:15:00,76.3,62.4,30.26,SW,225,2.5,2.9,62,0.00,,,0.00,WUHU216HW,2013-08-14 18:15:00,
2013-08-14 13:21:00,76.7,62.6,30.26,South,180,1.6,2.9,62,0.00,,,0.00,WUHU216HW,2013-08-14 18:21:00,
2013-08-14 13:26:00,77.0,63.0,30.26,NNE,23,2.9,3.1,62,0.00,,,0.00,WUHU216HW,2013-08-14 18:26:00,
2013-08-14 13:31:00,77.0,62.6,30.26,South,180,3.4,3.6,61,0.00,,,0.00,WUHU216HW,2013-08-14 18:31:00,
2013-08-14 13:36:00,77.2,62.7,30.26,SE,135,2.2,4.9,61,0.00,,,0.00,WUHU216HW,2013-08-14 18:36:00,
2013-08-14 13:41:00,77.4,62.9,30.26,SW,225,0.0,4.9,61,0.00,,,0.00,WUHU216HW,2013-08-14 18:41:00,
2013-08-14 13:46:00,77.4,62.5,30.26,SW,225,3.1,4.3,60,0.00,,,0.00,WUHU216HW,2013-08-14 18:46:00,
2013-08-14 13:51:00,77.4,62.5,30.26,SE,135,1.3,3.8,60,0.00,,,0.00,WUHU216HW,2013-08-14 18:51:00,
2013-08-14 13:56:00,77.2,61.7,30.26,East,90,1.1,3.1,59,0.00,,,0.00,WUHU216HW,2013-08-14 18:56:00,
2013-08-14 14:01:00,77.2,62.3,30.25,ESE,113,1.1,4.7,60,0.00,,,0.00,WUHU216HW,2013-08-14 19:01:00,
2013-08-14 14:06:00,77.2,62.3,30.25,ENE,68,3.1,4.7,60,0.00,,,0.00,WUHU216HW,2013-08-14 19:06:00,
2013-08-14 14:12:00,77.0,62.1,30.26,SE,135,1.6,4.7,60,0.00,,,0.00,WUHU216HW,2013-08-14 19:12:00,
2013-08-14 14:17:00,76.7,61.3,30.25,SE,135,0.2,3.4,59,0.00,,,0.00,WUHU216HW,2013-08-14 19:17:00,
2013-08-14 14:22:00,76.5,61.1,30.25,SE,135,1.6,3.4,59,0.00,,,0.00,WUHU216HW,2013-08-14 19:22:00,
2013-08-14 14:27:00,76.7,61.3,30.25,SE,135,0.9,3.4,59,0.00,,,0.00,WUHU216HW,2013-08-14 19:27:00,
2013-08-14 14:32:00,76.9,61.5,30.25,SE,135,0.4,3.4,59,0.00,,,0.00,WUHU216HW,2013-08-14 19:32:00,
2013-08-14 14:37:00,77.2,62.3,30.25,ESE,113,2.0,3.8,60,0.00,,,0.00,WUHU216HW,2013-08-14 19:37:00,
2013-08-14 14:42:00,77.2,61.7,30.25,ESE,113,1.1,4.9,59,0.00,,,0.00,WUHU216HW,2013-08-14 19:42:00,
2013-08-14 14:47:00,77.6,62.1,30.24,SSE,158,0.9,4.9,59,0.00,,,0.00,WUHU216HW,2013-08-14 19:47:00,
2013-08-14 14:53:00,77.8,61.8,30.24,SSW,203,0.9,3.4,58,0.00,,,0.00,WUHU216HW,2013-08-14 19:53:00,
2013-08-14 14:58:00,78.1,62.2,30.24,SSW,203,1.1,3.4,58,0.00,,,0.00,WUHU216HW,2013-08-14 19:58:00,
2013-08-14 15:03:00,78.1,62.2,30.24,NE,45,1.8,4.0,58,0.00,,,0.00,WUHU216HW,2013-08-14 20:03:00,
2013-08-14 15:08:00,78.1,61.7,30.24,ESE,113,1.1,4.0,57,0.00,,,0.00,WUHU216HW,2013-08-14 20:08:00,
2013-08-14 15:13:00,78.1,61.7,30.24,North,0,1.1,3.8,57,0.00,,,0.00,WUHU216HW,2013-08-14 20:13:00,
2013-08-14 15:18:00,78.3,61.3,30.23,WSW,248,2.9,2.9,56,0.00,,,0.00,WUHU216HW,2013-08-14 20:18:00,
2013-08-14 15:23:00,78.7,61.7,30.24,SE,135,1.6,4.7,56,0.00,,,0.00,WUHU216HW,2013-08-14 20:23:00,
2013-08-14 15:28:00,78.3,60.8,30.24,SSE,158,0.9,6.0,55,0.00,,,0.00,WUHU216HW,2013-08-14 20:28:00,
2013-08-14 15:33:00,78.1,61.1,30.24,SE,135,2.5,6.0,56,0.00,,,0.00,WUHU216HW,2013-08-14 20:33:00,
2013-08-14 15:39:00,78.1,61.1,30.24,East,90,1.1,4.9,56,0.00,,,0.00,WUHU216HW,2013-08-14 20:39:00,
2013-08-14 15:44:00,77.8,60.8,30.24,ENE,68,1.8,3.6,56,0.00,,,0.00,WUHU216HW,2013-08-14 20:44:00,
2013-08-14 15:49:00,77.4,60.9,30.23,SE,135,1.6,2.7,57,0.00,,,0.00,WUHU216HW,2013-08-14 20:49:00,
2013-08-14 15:54:00,77.4,60.9,30.23,NE,45,1.1,2.5,57,0.00,,,0.00,WUHU216HW,2013-08-14 20:54:00,
2013-08-14 15:59:00,77.6,61.1,30.23,SE,135,2.0,2.5,57,0.00,,,0.00,WUHU216HW,2013-08-14 20:59:00,
2013-08-14 16:04:00,77.8,60.8,30.23,ESE,113,0.4,2.5,56,0.00,,,0.00,WUHU216HW,2013-08-14 21:04:00,
2013-08-14 16:09:00,78.1,60.6,30.23,SE,135,0.4,2.2,55,0.00,,,0.00,WUHU216HW,2013-08-14 21:09:00,
2013-08-14 16:14:00,78.5,60.9,30.23,SE,135,1.1,2.5,55,0.00,,,0.00,WUHU216HW,2013-08-14 21:14:00,
2013-08-14 16:19:00,78.7,61.1,30.23,ENE,68,2.0,5.4,55,0.00,,,0.00,WUHU216HW,2013-08-14 21:19:00,
2013-08-14 16:24:00,78.7,61.1,30.22,NE,45,0.7,5.4,55,0.00,,,0.00,WUHU216HW,2013-08-14 21:24:00,
2013-08-14 16:29:00,78.5,60.9,30.22,SE,135,1.3,3.4,55,0.00,,,0.00,WUHU216HW,2013-08-14 21:29:00,
2013-08-14 16:34:00,78.1,60.6,30.22,East,90,1.6,3.4,55,0.00,,,0.00,WUHU216HW,2013-08-14 21:34:00,
2013-08-14 16:39:00,77.8,60.3,30.21,ESE,113,0.4,3.4,55,0.00,,,0.00,WUHU216HW,2013-08-14 21:39:00,
2013-08-14 16:44:00,77.6,60.1,30.21,NNW,338,0.9,2.5,55,0.00,,,0.00,WUHU216HW,2013-08-14 21:44:00,
2013-08-14 16:49:00,77.6,60.6,30.21,SE,135,0.0,2.0,56,0.00,,,0.00,WUHU216HW,2013-08-14 21:49:00,
2013-08-14 16:54:00,77.4,60.4,30.21,ESE,113,1.1,3.4,56,0.00,,,0.00,WUHU216HW,2013-08-14 21:54:00,
2013-08-14 16:59:00,77.4,60.4,30.21,ENE,68,6.0,6.3,56,0.00,,,0.00,WUHU216HW,2013-08-14 21:59:00,
2013-08-14 17:04:00,77.4,60.4,30.20,NE,45,4.0,6.9,56,0.00,,,0.00,WUHU216HW,2013-08-14 22:04:00,
2013-08-14 17:09:00,77.2,60.3,30.21,ENE,68,0.4,6.9,56,0.00,,,0.00,WUHU216HW,2013-08-14 22:09:00,
2013-08-14 17:14:00,77.0,60.1,30.20,SE,135,1.1,5.6,56,0.00,,,0.00,WUHU216HW,2013-08-14 22:14:00,
2013-08-14 17:19:00,76.9,60.4,30.20,ESE,113,1.3,4.5,57,0.00,,,0.00,WUHU216HW,2013-08-14 22:19:00,
2013-08-14 17:24:00,76.9,60.4,30.21,ESE,113,1.3,5.4,57,0.00,,,0.00,WUHU216HW,2013-08-14 22:24:00,
2013-08-14 17:29:00,76.9,60.4,30.21,North,0,2.2,5.4,57,0.00,,,0.00,WUHU216HW,2013-08-14 22:29:00,
2013-08-14 17:34:00,76.9,60.0,30.21,ESE,113,2.7,3.8,56,0.00,,,0.00,WUHU216HW,2013-08-14 22:34:00,
2013-08-14 17:39:00,76.7,59.8,30.20,South,180,2.2,4.0,56,0.00,,,0.00,WUHU216HW,2013-08-14 22:39:00,
2013-08-14 17:44:00,76.3,59.4,30.20,ESE,113,2.5,4.7,56,0.00,,,0.00,WUHU216HW,2013-08-14 22:44:00,
2013-08-14 17:49:00,76.0,59.6,30.20,ENE,68,2.0,5.6,57,0.00,,,0.00,WUHU216HW,2013-08-14 22:49:00,
2013-08-14 17:54:00,75.8,59.5,30.20,East,90,3.6,5.6,57,0.00,,,0.00,WUHU216HW,2013-08-14 22:54:00,
2013-08-14 17:59:00,75.8,59.9,30.20,NE,45,2.0,3.6,58,0.00,,,0.00,WUHU216HW,2013-08-14 22:59:00,
2013-08-14 18:04:00,75.8,59.9,30.20,SE,135,1.1,3.6,58,0.00,,,0.00,WUHU216HW,2013-08-14 23:04:00,
2013-08-14 18:09:00,75.6,59.8,30.20,ESE,113,1.1,2.2,58,0.00,,,0.00,WUHU216HW,2013-08-14 23:09:00,
2013-08-14 18:15:00,75.6,59.8,30.20,ESE,113,0.4,2.2,58,0.00,,,0.00,WUHU216HW,2013-08-14 23:15:00,
2013-08-14 18:20:00,75.4,60.1,30.20,East,90,0.4,2.7,59,0.00,,,0.00,WUHU216HW,2013-08-14 23:20:00,
2013-08-14 18:25:00,75.2,59.9,30.20,ESE,113,0.4,3.4,59,0.00,,,0.00,WUHU216HW,2013-08-14 23:25:00,
2013-08-14 18:30:00,75.1,59.8,30.20,ESE,113,0.2,3.4,59,0.00,,,0.00,WUHU216HW,2013-08-14 23:30:00,
2013-08-14 18:35:00,74.9,59.6,30.20,SE,135,1.1,2.9,59,0.00,,,0.00,WUHU216HW,2013-08-14 23:35:00,
2013-08-14 18:40:00,74.7,59.4,30.20,ESE,113,1.1,2.9,59,0.00,,,0.00,WUHU216HW,2013-08-14 23:40:00,
2013-08-14 18:45:00,74.5,59.2,30.19,ENE,68,0.7,2.7,59,0.00,,,0.00,WUHU216HW,2013-08-14 23:45:00,
2013-08-14 18:50:00,74.3,59.0,30.19,ESE,113,0.4,2.5,59,0.00,,,0.00,WUHU216HW,2013-08-14 23:50:00,
2013-08-14 18:55:00,74.2,58.9,30.19,SE,135,0.2,2.5,59,0.00,,,0.00,WUHU216HW,2013-08-14 23:55:00,
2013-08-14 19:00:00,74.2,58.9,30.19,ESE,113,1.1,4.0,59,0.00,,,0.00,WUHU216HW,2013-08-15 00:00:00,
2013-08-14 19:05:00,73.8,58.5,30.19,East,90,2.5,4.0,59,0.00,,,0.00,WUHU216HW,2013-08-15 00:05:00,
2013-08-14 19:10:00,73.8,58.5,30.19,SE,135,1.1,3.4,59,0.00,,,0.00,WUHU216HW,2013-08-15 00:10:00,
2013-08-14 19:15:00,73.4,58.1,30.19,ESE,113,1.3,3.4,59,0.00,,,0.00,WUHU216HW,2013-08-15 00:15:00,
2013-08-14 19:20:00,73.4,58.7,30.19,East,90,1.1,3.4,60,0.00,,,0.00,WUHU216HW,2013-08-15 00:20:00,
2013-08-14 19:25:00,73.3,58.5,30.19,ESE,113,2.0,3.4,60,0.00,,,0.00,WUHU216HW,2013-08-15 00:25:00,
2013-08-14 19:30:00,73.1,58.3,30.19,ESE,113,0.7,2.5,60,0.00,,,0.00,WUHU216HW,2013-08-15 00:30:00,
2013-08-14 19:35:00,73.1,58.3,30.19,SE,135,0.0,2.5,60,0.00,,,0.00,WUHU216HW,2013-08-15 00:35:00,
2013-08-14 19:40:00,72.7,58.5,30.19,ESE,113,1.1,1.6,61,0.00,,,0.00,WUHU216HW,2013-08-15 00:40:00,
2013-08-14 19:45:00,72.5,58.3,30.19,SE,135,0.9,2.2,61,0.00,,,0.00,WUHU216HW,2013-08-15 00:45:00,
2013-08-14 19:50:00,72.4,58.1,30.19,SE,135,0.0,2.2,61,0.00,,,0.00,WUHU216HW,2013-08-15 00:50:00,
2013-08-14 19:55:00,72.2,58.0,30.19,ESE,113,0.0,1.1,61,0.00,,,0.00,WUHU216HW,2013-08-15 00:55:00,
2013-08-14 20:00:00,72.0,58.2,30.19,East,90,0.4,1.8,62,0.00,,,0.00,WUHU216HW,2013-08-15 01:00:00,
2013-08-14 20:05:00,71.6,58.0,30.19,ESE,113,0.0,1.8,62,0.00,,,0.00,WUHU216HW,2013-08-15 01:05:00,
2013-08-14 20:10:00,71.6,58.0,30.20,ESE,113,0.0,0.4,62,0.00,,,0.00,WUHU216HW,2013-08-15 01:10:00,
2013-08-14 20:15:00,71.3,58.1,30.20,ESE,113,0.0,0.4,63,0.00,,,0.00,WUHU216HW,2013-08-15 01:15:00,
2013-08-14 20:20:00,71.1,57.9,30.20,East,90,0.2,0.7,63,0.00,,,0.00,WUHU216HW,2013-08-15 01:20:00,
2013-08-14 20:25:00,70.9,57.2,30.20,East,90,0.0,0.7,62,0.00,,,0.00,WUHU216HW,2013-08-15 01:25:00,
2013-08-14 20:30:00,70.6,57.0,30.20,East,90,0.0,0.4,62,0.00,,,0.00,WUHU216HW,2013-08-15 01:30:00,
2013-08-14 20:35:00,70.2,57.1,30.20,ENE,68,0.0,0.4,63,0.00,,,0.00,WUHU216HW,2013-08-15 01:35:00,
2013-08-14 20:40:00,70.2,57.1,30.20,ENE,68,0.0,0.4,63,0.00,,,0.00,WUHU216HW,2013-08-15 01:40:00,
2013-08-14 20:45:00,69.8,57.1,30.20,ENE,68,0.0,0.0,64,0.00,,,0.00,WUHU216HW,2013-08-15 01:45:00,
2013-08-14 20:50:00,69.7,56.9,30.20,ENE,68,0.0,0.0,64,0.00,,,0.00,WUHU216HW,2013-08-15 01:50:00,
2013-08-14 20:55:00,69.5,56.8,30.20,East,90,0.2,0.2,64,0.00,,,0.00,WUHU216HW,2013-08-15 01:55:00,
2013-08-14 21:00:00,69.5,56.8,30.20,SE,135,0.2,0.7,64,0.00,,,0.00,WUHU216HW,2013-08-15 02:00:00,
2013-08-14 21:05:00,69.3,57.0,30.20,SE,135,0.4,0.7,65,0.00,,,0.00,WUHU216HW,2013-08-15 02:05:00,
2013-08-14 21:10:00,69.3,57.0,30.20,SE,135,0.0,0.4,65,0.00,,,0.00,WUHU216HW,2013-08-15 02:10:00,
2013-08-14 21:15:00,69.1,56.8,30.21,ESE,113,0.0,0.7,65,0.00,,,0.00,WUHU216HW,2013-08-15 02:15:00,
2013-08-14 21:20:00,68.9,56.7,30.21,SE,135,0.0,0.7,65,0.00,,,0.00,WUHU216HW,2013-08-15 02:20:00,
2013-08-14 21:25:00,68.9,56.7,30.21,SE,135,0.0,1.1,65,0.00,,,0.00,WUHU216HW,2013-08-15 02:25:00,
2013-08-14 21:30:00,68.8,56.5,30.21,SE,135,0.4,1.1,65,0.00,,,0.00,WUHU216HW,2013-08-15 02:30:00,
2013-08-14 21:35:00,68.8,56.9,30.21,ESE,113,0.4,0.9,66,0.00,,,0.00,WUHU216HW,2013-08-15 02:35:00,
2013-08-14 21:40:00,68.8,56.9,30.21,SSE,158,0.0,0.9,66,0.00,,,0.00,WUHU216HW,2013-08-15 02:40:00,
2013-08-14 21:45:00,68.6,56.7,30.21,SSE,158,0.0,0.7,66,0.00,,,0.00,WUHU216HW,2013-08-15 02:45:00,
2013-08-14 21:50:00,68.4,56.6,30.21,WNW,293,0.0,0.4,66,0.00,,,0.00,WUHU216HW,2013-08-15 02:50:00,
2013-08-14 21:55:00,68.4,56.6,30.21,SE,135,0.0,1.1,66,0.00,,,0.00,WUHU216HW,2013-08-15 02:55:00,
2013-08-14 22:00:00,68.4,56.6,30.21,SE,135,0.0,1.1,66,0.00,,,0.00,WUHU216HW,2013-08-15 03:00:00,
2013-08-14 22:05:00,68.2,56.8,30.22,SE,135,0.0,0.0,67,0.00,,,0.00,WUHU216HW,2013-08-15 03:05:00,
2013-08-14 22:10:00,68.0,56.7,30.21,SE,135,0.0,0.0,67,0.00,,,0.00,WUHU216HW,2013-08-15 03:10:00,
2013-08-14 22:15:00,68.0,56.7,30.22,ESE,113,0.2,0.2,67,0.00,,,0.00,WUHU216HW,2013-08-15 03:15:00,
2013-08-14 22:20:00,67.9,56.5,30.22,ESE,113,0.0,0.7,67,0.00,,,0.00,WUHU216HW,2013-08-15 03:20:00,
2013-08-14 22:25:00,67.9,56.5,30.22,ESE,113,0.0,0.7,67,0.00,,,0.00,WUHU216HW,2013-08-15 03:25:00,
2013-08-14 22:30:00,67.7,56.4,30.22,SE,135,0.4,0.4,67,0.00,,,0.00,WUHU216HW,2013-08-15 03:30:00,
2013-08-14 22:35:00,67.7,56.4,30.22,SE,135,0.4,0.9,67,0.00,,,0.00,WUHU216HW,2013-08-15 03:35:00,
2013-08-14 22:40:00,67.5,56.6,30.22,ESE,113,0.0,0.9,68,0.00,,,0.00,WUHU216HW,2013-08-15 03:40:00,
2013-08-14 22:45:00,67.5,56.6,30.22,ESE,113,0.0,0.2,68,0.00,,,0.00,WUHU216HW,2013-08-15 03:45:00,
2013-08-14 22:50:00,67.3,56.4,30.21,ESE,113,0.0,0.0,68,0.00,,,0.00,WUHU216HW,2013-08-15 03:50:00,
2013-08-14 22:55:00,67.3,56.4,30.22,ESE,113,0.0,0.0,68,0.00,,,0.00,WUHU216HW,2013-08-15 03:55:00,
2013-08-14 23:00:00,67.3,56.4,30.22,ESE,113,0.0,0.0,68,0.00,,,0.00,WUHU216HW,2013-08-15 04:00:00,
2013-08-14 23:01:00,67.3,56.4,30.22,ESE,113,0.0,0.0,68,0.00,,,0.00,WUHU216HW,2013-08-15 04:01:00,
2013-08-14 23:02:00,67.1,56.3,30.22,SE,135,0.0,0.0,68,0.00,,,0.00,WUHU216HW,2013-08-15 04:02:00,
2013-08-14 23:07:00,67.1,56.3,30.22,SE,135,0.0,0.0,68,0.00,,,0.00,WUHU216HW,2013-08-15 04:07:00,
2013-08-14 23:12:00,67.0,56.1,30.21,ESE,113,0.0,0.4,68,0.00,,,0.00,WUHU216HW,2013-08-15 04:12:00,
2013-08-14 23:17:00,67.0,56.1,30.22,SE,135,0.0,0.4,68,0.00,,,0.00,WUHU216HW,2013-08-15 04:17:00,
2013-08-14 23:22:00,67.0,56.4,30.22,SE,135,0.7,0.7,69,0.00,,,0.00,WUHU216HW,2013-08-15 04:22:00,
2013-08-14 23:27:00,66.8,56.3,30.21,ESE,113,0.2,0.9,69,0.00,,,0.00,WUHU216HW,2013-08-15 04:27:00,
2013-08-14 23:32:00,66.8,55.9,30.21,SE,135,0.4,1.1,68,0.00,,,0.00,WUHU216HW,2013-08-15 04:32:00,
2013-08-14 23:37:00,66.8,55.9,30.21,SE,135,0.9,1.1,68,0.00,,,0.00,WUHU216HW,2013-08-15 04:37:00,
2013-08-14 23:42:00,66.8,55.9,30.21,SE,135,0.4,1.1,68,0.00,,,0.00,WUHU216HW,2013-08-15 04:42:00,
2013-08-14 23:47:00,66.6,55.7,30.21,SE,135,0.4,1.8,68,0.00,,,0.00,WUHU216HW,2013-08-15 04:47:00,
2013-08-14 23:52:00,66.6,55.7,30.21,SE,135,0.4,1.8,68,0.00,,,0.00,WUHU216HW,2013-08-15 04:52:00,
2013-08-14 23:57:00,66.8,55.4,30.21,SE,135,0.4,1.1,67,0.00,,,0.00,WUHU216HW,2013-08-15 04:57:00,